| time (UTC) | temp F | wind direction | speed MPH | gust MPH | rain 1hr in | rain 24hr in | rain mn in | humidity % | barometer mb |
| 20260905160403 | 86 | 87 | 1.0 | 3.0 | 0.00 | 0.00 | 0.00 | 52 | 1016.1 |
| 20260905155903 | 86 | 88 | 1.0 | 3.0 | 0.00 | 0.00 | 0.00 | 53 | 1016.1 |
| 20260905155404 | 85 | 158 | 1.0 | 3.0 | 0.00 | 0.00 | 0.00 | 53 | 1016.1 |
| 20260905154903 | 85 | 169 | 1.0 | 3.0 | 0.00 | 0.00 | 0.00 | 53 | 1016.1 |
| 20260905154403 | 85 | 96 | 1.0 | 3.0 | 0.00 | 0.00 | 0.00 | 55 | 1016.0 |
| 20260905153903 | 84 | 180 | 1.0 | 3.0 | 0.00 | 0.00 | 0.00 | 54 | 1016.1 |
| 20260905153403 | 84 | 128 | 0.0 | 3.0 | 0.00 | 0.00 | 0.00 | 56 | 1016.1 |
| 20260905152903 | 84 | 120 | 1.0 | 3.0 | 0.00 | 0.00 | 0.00 | 56 | 1016.1 |
| 20260905151903 | 83 | 189 | 1.0 | 3.0 | 0.00 | 0.00 | 0.00 | 57 | 1016.1 |
| 20260905151404 | 83 | 211 | 1.0 | 5.0 | 0.00 | 0.00 | 0.00 | 57 | 1016.0 |
| 20260905150903 | 82 | 129 | 1.0 | 5.0 | 0.00 | 0.00 | 0.00 | 58 | 1016.0 |
| 20260905145903 | 82 | 134 | 1.0 | 3.0 | 0.00 | 0.00 | 0.00 | 60 | 1015.9 |
| 20260905145404 | 82 | 150 | 1.0 | 3.0 | 0.00 | 0.00 | 0.00 | 60 | 1016.0 |
| 20260905144903 | 81 | 165 | 1.0 | 3.0 | 0.00 | 0.00 | 0.00 | 60 | 1015.9 |
| 20260905144404 | 81 | 154 | 1.0 | 3.0 | 0.00 | 0.00 | 0.00 | 61 | 1016.0 |
| 20260905143903 | 80 | 91 | 1.0 | 3.0 | 0.00 | 0.00 | 0.00 | 62 | 1016.1 |
| 20260905142904 | 80 | 105 | 1.0 | 3.0 | 0.00 | 0.00 | 0.00 | 63 | 1016.0 |
| 20260905142403 | 79 | 96 | 1.0 | 3.0 | 0.00 | 0.00 | 0.00 | 63 | 1015.9 |
| 20260905141903 | 79 | 83 | 1.0 | 3.0 | 0.00 | 0.00 | 0.00 | 64 | 1015.7 |
| 20260905141403 | 79 | 100 | 2.0 | 3.0 | 0.00 | 0.00 | 0.00 | 64 | 1015.6 |
| 20260905140403 | 78 | 88 | 1.0 | 3.0 | 0.00 | 0.00 | 0.00 | 66 | 1015.5 |
| 20260905135904 | 77 | 109 | 1.0 | 3.0 | 0.00 | 0.00 | 0.00 | 67 | 1015.4 |
| 20260905135404 | 77 | 125 | 0.0 | 2.0 | 0.00 | 0.00 | 0.00 | 68 | 1015.4 |
| 20260905134903 | 76 | 82 | 0.0 | 1.0 | 0.00 | 0.00 | 0.00 | 69 | 1015.4 |
| 20260905134403 | 75 | 82 | 0.0 | 1.0 | 0.00 | 0.00 | 0.00 | 70 | 1015.3 |
| 20260905133904 | 75 | 82 | 0.0 | 1.0 | 0.00 | 0.00 | 0.00 | 70 | 1015.2 |
| 20260905133404 | 75 | 76 | 0.0 | 3.0 | 0.00 | 0.00 | 0.00 | 70 | 1015.0 |
| 20260905131903 | 75 | 87 | 0.0 | 1.0 | 0.00 | 0.00 | 0.00 | 71 | 1014.7 |
| 20260905131404 | 75 | 92 | 0.0 | 1.0 | 0.00 | 0.00 | 0.00 | 71 | 1014.7 |
| 20260905130903 | 75 | 92 | 0.0 | 1.0 | 0.00 | 0.00 | 0.00 | 71 | 1014.6 |
| 20260905130403 | 75 | 92 | 0.0 | 0.0 | 0.00 | 0.00 | 0.00 | 71 | 1014.6 |
| 20260905124903 | 75 | 92 | 0.0 | 1.0 | 0.00 | 0.00 | 0.00 | 70 | 1014.7 |
| 20260905124403 | 75 | 92 | 0.0 | 0.0 | 0.00 | 0.00 | 0.00 | 69 | 1014.7 |
| 20260905123903 | 75 | 92 | 0.0 | 1.0 | 0.00 | 0.00 | 0.00 | 69 | 1014.6 |
| 20260905123403 | 75 | 92 | 0.0 | 1.0 | 0.00 | 0.00 | 0.00 | 69 | 1014.6 |
| 20260905122904 | 75 | 92 | 0.0 | 1.0 | 0.00 | 0.00 | 0.00 | 69 | 1014.6 |
| 20260905122404 | 75 | 92 | 0.0 | 2.0 | 0.00 | 0.00 | 0.00 | 69 | 1014.4 |
| 20260905121904 | 75 | 92 | 0.0 | 2.0 | 0.00 | 0.00 | 0.00 | 69 | 1014.4 |
| 20260905121403 | 75 | 93 | 0.0 | 2.0 | 0.00 | 0.00 | 0.00 | 69 | 1014.4 |
| 20260905120903 | 75 | 77 | 0.0 | 2.0 | 0.00 | 0.00 | 0.00 | 69 | 1014.4 |
| 20260905120404 | 75 | 63 | 0.0 | 1.0 | 0.00 | 0.00 | 0.00 | 69 | 1014.3 |
| 20260905115904 | 75 | 63 | 0.0 | 1.0 | 0.00 | 0.00 | 0.00 | 69 | 1014.3 |
| 20260905115404 | 76 | 63 | 0.0 | 1.0 | 0.00 | 0.00 | 0.00 | 69 | 1014.3 |
| 20260905114904 | 76 | 63 | 0.0 | 1.0 | 0.00 | 0.00 | 0.00 | 69 | 1014.3 |
| 20260905114403 | 76 | 63 | 0.0 | 1.0 | 0.00 | 0.00 | 0.00 | 68 | 1014.4 |
| 20260905113903 | 76 | 63 | 0.0 | 1.0 | 0.00 | 0.00 | 0.00 | 68 | 1014.5 |
| 20260905112903 | 76 | 63 | 0.0 | 1.0 | 0.00 | 0.00 | 0.00 | 69 | 1014.4 |
| 20260905112403 | 76 | 63 | 0.0 | 0.0 | 0.00 | 0.00 | 0.00 | 69 | 1014.4 |
| 20260905111903 | 76 | 63 | 0.0 | 0.0 | 0.00 | 0.00 | 0.00 | 69 | 1014.4 |
| 20260905111404 | 76 | 63 | 0.0 | 0.0 | 0.00 | 0.00 | 0.00 | 68 | 1014.4 |
| 20260905110904 | 76 | 63 | 0.0 | 0.0 | 0.00 | 0.00 | 0.00 | 68 | 1014.3 |
| 20260905110403 | 77 | 63 | 0.0 | 0.0 | 0.00 | 0.00 | 0.00 | 67 | 1014.3 |
| 20260905105903 | 77 | 63 | 0.0 | 0.0 | 0.00 | 0.00 | 0.00 | 67 | 1014.3 |
| 20260905104404 | 77 | 63 | 0.0 | 1.0 | 0.00 | 0.00 | 0.00 | 66 | 1014.3 |
| 20260905103903 | 77 | 63 | 0.0 | 1.0 | 0.00 | 0.00 | 0.00 | 66 | 1014.2 |
| 20260905103403 | 77 | 63 | 0.0 | 1.0 | 0.00 | 0.00 | 0.00 | 67 | 1014.3 |
| 20260905102904 | 77 | 63 | 0.0 | 2.0 | 0.00 | 0.00 | 0.00 | 66 | 1014.3 |
| 20260905102403 | 77 | 63 | 0.0 | 2.0 | 0.00 | 0.00 | 0.00 | 66 | 1014.3 |
| 20260905101903 | 77 | 78 | 0.0 | 2.0 | 0.00 | 0.00 | 0.00 | 66 | 1014.3 |
| 20260905101404 | 77 | 88 | 0.0 | 2.0 | 0.00 | 0.00 | 0.00 | 66 | 1014.3 |
| 20260905100904 | 77 | 86 | 0.0 | 2.0 | 0.00 | 0.00 | 0.00 | 66 | 1014.3 |
| 20260905100403 | 77 | 87 | 1.0 | 2.0 | 0.00 | 0.00 | 0.00 | 66 | 1014.3 |
| 20260905095403 | 77 | 76 | 0.0 | 1.0 | 0.00 | 0.00 | 0.00 | 66 | 1014.3 |
| 20260905094903 | 77 | 76 | 0.0 | 1.0 | 0.00 | 0.00 | 0.00 | 65 | 1014.3 |
| 20260905094403 | 78 | 76 | 0.0 | 2.0 | 0.00 | 0.00 | 0.00 | 67 | 1014.3 |
| 20260905093903 | 78 | 76 | 0.0 | 2.0 | 0.00 | 0.00 | 0.00 | 66 | 1014.3 |
| 20260905093404 | 78 | 85 | 0.0 | 2.0 | 0.00 | 0.00 | 0.00 | 65 | 1014.3 |
| 20260905092904 | 78 | 62 | 0.0 | 1.0 | 0.00 | 0.00 | 0.00 | 65 | 1014.3 |
| 20260905092404 | 78 | 62 | 0.0 | 1.0 | 0.00 | 0.00 | 0.00 | 66 | 1014.3 |
| 20260905091904 | 78 | 62 | 0.0 | 1.0 | 0.00 | 0.00 | 0.00 | 66 | 1014.4 |
| 20260905091403 | 78 | 62 | 0.0 | 1.0 | 0.00 | 0.00 | 0.00 | 65 | 1014.3 |
| 20260905090904 | 78 | 62 | 0.0 | 1.0 | 0.00 | 0.00 | 0.00 | 65 | 1014.4 |
| 20260905090404 | 78 | 62 | 0.0 | 1.0 | 0.00 | 0.00 | 0.00 | 64 | 1014.4 |
| 20260905085404 | 79 | 62 | 0.0 | 1.0 | 0.00 | 0.00 | 0.00 | 64 | 1014.4 |
| 20260905084903 | 79 | 62 | 0.0 | 1.0 | 0.00 | 0.00 | 0.00 | 65 | 1014.3 |
| 20260905084404 | 79 | 62 | 0.0 | 1.0 | 0.00 | 0.00 | 0.00 | 63 | 1014.3 |
| 20260905083903 | 79 | 62 | 0.0 | 1.0 | 0.00 | 0.00 | 0.00 | 63 | 1014.4 |
| 20260905083403 | 79 | 62 | 0.0 | 1.0 | 0.00 | 0.00 | 0.00 | 63 | 1014.4 |
| 20260905082904 | 80 | 62 | 0.0 | 1.0 | 0.00 | 0.00 | 0.00 | 63 | 1014.4 |
| 20260905081903 | 80 | 62 | 0.0 | 0.0 | 0.00 | 0.00 | 0.00 | 63 | 1014.6 |
| 20260905080903 | 80 | 62 | 0.0 | 1.0 | 0.00 | 0.00 | 0.00 | 61 | 1014.7 |
| 20260905080404 | 80 | 62 | 0.0 | 1.0 | 0.00 | 0.00 | 0.00 | 61 | 1014.7 |
| 20260905075904 | 80 | 62 | 0.0 | 0.0 | 0.00 | 0.00 | 0.00 | 62 | 1014.7 |
| 20260905075403 | 80 | 62 | 0.0 | 0.0 | 0.00 | 0.00 | 0.00 | 61 | 1014.7 |
| 20260905074903 | 81 | 62 | 0.0 | 0.0 | 0.00 | 0.00 | 0.00 | 60 | 1014.7 |
| 20260905074404 | 81 | 62 | 0.0 | 0.0 | 0.00 | 0.00 | 0.00 | 59 | 1014.7 |
| 20260905073904 | 81 | 62 | 0.0 | 0.0 | 0.00 | 0.00 | 0.00 | 59 | 1014.7 |
| 20260905073404 | 81 | 62 | 0.0 | 0.0 | 0.00 | 0.00 | 0.00 | 59 | 1014.6 |
| 20260905072903 | 81 | 62 | 0.0 | 1.0 | 0.00 | 0.00 | 0.00 | 58 | 1014.6 |
| 20260905072403 | 81 | 62 | 0.0 | 1.0 | 0.00 | 0.00 | 0.00 | 58 | 1014.6 |
| 20260905071903 | 81 | 62 | 0.0 | 0.0 | 0.00 | 0.00 | 0.00 | 58 | 1014.6 |
| 20260905071403 | 81 | 62 | 0.0 | 0.0 | 0.00 | 0.00 | 0.00 | 58 | 1014.4 |
| 20260905070903 | 82 | 62 | 0.0 | 0.0 | 0.00 | 0.00 | 0.00 | 58 | 1014.4 |
| 20260905070404 | 82 | 62 | 0.0 | 0.0 | 0.00 | 0.00 | 0.00 | 57 | 1014.4 |
| 20260905065903 | 82 | 62 | 0.0 | 1.0 | 0.00 | 0.00 | 0.00 | 57 | 1014.4 |
| 20260905065403 | 82 | 62 | 0.0 | 1.0 | 0.00 | 0.00 | 0.00 | 56 | 1014.5 |
| 20260905064403 | 83 | 62 | 0.0 | 2.0 | 0.00 | 0.00 | 0.00 | 55 | 1014.5 |
| 20260905063903 | 83 | 62 | 0.0 | 2.0 | 0.00 | 0.00 | 0.00 | 54 | 1014.3 |
| 20260905063403 | 83 | 80 | 1.0 | 2.0 | 0.00 | 0.00 | 0.00 | 55 | 1014.4 |
| 20260905062903 | 82 | 80 | 0.0 | 3.0 | 0.00 | 0.00 | 0.00 | 55 | 1014.4 |
| 20260905062404 | 82 | 24 | 1.0 | 3.0 | 0.00 | 0.00 | 0.00 | 56 | 1014.5 |
| 20260905061904 | 82 | 127 | 0.0 | 0.0 | 0.00 | 0.00 | 0.00 | 57 | 1014.4 |
| 20260905061404 | 82 | 127 | 0.0 | 0.0 | 0.00 | 0.00 | 0.00 | 57 | 1014.3 |
| 20260905060904 | 83 | 127 | 0.0 | 0.0 | 0.00 | 0.00 | 0.00 | 55 | 1014.3 |
| 20260905054903 | 84 | 206 | 0.0 | 2.0 | 0.00 | 0.00 | 0.00 | 52 | 1014.2 |
| 20260905054403 | 84 | 51 | 0.0 | 1.0 | 0.00 | 0.00 | 0.00 | 52 | 1014.1 |
| 20260905053903 | 84 | 51 | 0.0 | 1.0 | 0.00 | 0.00 | 0.00 | 51 | 1014.0 |
| 20260905053403 | 84 | 51 | 0.0 | 2.0 | 0.00 | 0.00 | 0.00 | 50 | 1014.0 |
| 20260905052903 | 85 | 51 | 0.0 | 2.0 | 0.00 | 0.00 | 0.00 | 49 | 1013.9 |
| 20260905052404 | 85 | 51 | 0.0 | 1.0 | 0.00 | 0.00 | 0.00 | 49 | 1013.9 |
| 20260905051904 | 85 | 51 | 0.0 | 1.0 | 0.00 | 0.00 | 0.00 | 49 | 1013.9 |
| 20260905051404 | 85 | 51 | 0.0 | 1.0 | 0.00 | 0.00 | 0.00 | 50 | 1013.8 |
| 20260905050903 | 85 | 51 | 0.0 | 2.0 | 0.00 | 0.00 | 0.00 | 50 | 1013.8 |
| 20260905045904 | 85 | 55 | 1.0 | 3.0 | 0.00 | 0.00 | 0.00 | 49 | 1013.8 |
| 20260905045403 | 85 | 81 | 1.0 | 2.0 | 0.00 | 0.00 | 0.00 | 49 | 1013.7 |
| 20260905044904 | 85 | 101 | 0.0 | 1.0 | 0.00 | 0.00 | 0.00 | 50 | 1013.8 |
| 20260905044403 | 85 | 101 | 0.0 | 1.0 | 0.00 | 0.00 | 0.00 | 50 | 1013.8 |
| 20260905043904 | 86 | 101 | 0.0 | 2.0 | 0.00 | 0.00 | 0.00 | 48 | 1013.7 |
| 20260905043404 | 86 | 104 | 1.0 | 2.0 | 0.00 | 0.00 | 0.00 | 47 | 1013.7 |
| 20260905042903 | 87 | 229 | 0.0 | 1.0 | 0.00 | 0.00 | 0.00 | 46 | 1013.8 |
| 20260905041904 | 88 | 229 | 0.0 | 0.0 | 0.00 | 0.01 | 0.00 | 42 | 1013.7 |
| 20260905041403 | 88 | 229 | 0.0 | 2.0 | 0.00 | 0.05 | 0.00 | 41 | 1013.7 |
| 20260905040904 | 89 | 229 | 0.0 | 3.0 | 0.00 | 0.07 | 0.00 | 40 | 1013.7 |
| 20260905040404 | 89 | 229 | 0.0 | 3.0 | 0.00 | 0.08 | 0.00 | 40 | 1013.6 |
| 20260905035904 | 89 | 253 | 1.0 | 3.0 | 0.00 | 0.08 | 0.00 | 39 | 1013.7 |
| 20260905035404 | 89 | 238 | 0.0 | 5.0 | 0.00 | 0.10 | 0.00 | 39 | 1013.7 |
| 20260905034904 | 89 | 246 | 1.0 | 5.0 | 0.00 | 0.10 | 0.00 | 39 | 1013.6 |
| 20260905034403 | 90 | 224 | 1.0 | 3.0 | 0.00 | 0.10 | 0.00 | 39 | 1013.6 |
| 20260905033903 | 90 | 243 | 1.0 | 3.0 | 0.00 | 0.10 | 0.00 | 38 | 1013.6 |
| 20260905032903 | 90 | 221 | 1.0 | 3.0 | 0.00 | 0.10 | 0.00 | 38 | 1013.5 |
| 20260905031903 | 90 | 209 | 1.0 | 3.0 | 0.00 | 0.10 | 0.00 | 37 | 1013.4 |
| 20260905031403 | 90 | 220 | 1.0 | 3.0 | 0.00 | 0.10 | 0.00 | 37 | 1013.2 |
| 20260905030903 | 90 | 207 | 0.0 | 2.0 | 0.00 | 0.10 | 0.00 | 37 | 1013.1 |
| 20260905030404 | 91 | 213 | 0.0 | 2.0 | 0.00 | 0.10 | 0.00 | 37 | 1013.1 |
| 20260905024903 | 91 | 211 | 1.0 | 2.0 | 0.00 | 0.10 | 0.00 | 36 | 1012.9 |
| 20260905024403 | 91 | 226 | 1.0 | 3.0 | 0.00 | 0.10 | 0.00 | 36 | 1012.8 |
| 20260905023904 | 91 | 223 | 1.0 | 3.0 | 0.00 | 0.10 | 0.00 | 36 | 1012.8 |
| 20260905022903 | 92 | 247 | 1.0 | 3.0 | 0.00 | 0.10 | 0.00 | 35 | 1012.5 |
| 20260905022403 | 92 | 229 | 1.0 | 6.0 | 0.00 | 0.10 | 0.00 | 35 | 1012.5 |
| 20260905021904 | 92 | 239 | 2.0 | 6.0 | 0.00 | 0.10 | 0.00 | 34 | 1012.5 |
| 20260905021403 | 92 | 247 | 1.0 | 3.0 | 0.00 | 0.10 | 0.00 | 33 | 1012.4 |
| 20260905020903 | 92 | 242 | 2.0 | 5.0 | 0.00 | 0.10 | 0.00 | 33 | 1012.4 |
| 20260905020403 | 92 | 240 | 2.0 | 5.0 | 0.00 | 0.10 | 0.00 | 33 | 1012.3 |
| 20260905015903 | 92 | 239 | 2.0 | 3.0 | 0.00 | 0.10 | 0.00 | 33 | 1012.2 |
| 20260905015404 | 93 | 236 | 1.0 | 3.0 | 0.00 | 0.10 | 0.00 | 33 | 1012.3 |
| 20260905014904 | 93 | 228 | 1.0 | 3.0 | 0.00 | 0.10 | 0.00 | 32 | 1012.2 |
| 20260905014404 | 93 | 241 | 1.0 | 3.0 | 0.00 | 0.10 | 0.00 | 31 | 1012.2 |
| 20260905013903 | 93 | 211 | 0.0 | 2.0 | 0.00 | 0.10 | 0.00 | 31 | 1012.3 |
| 20260905013403 | 93 | 228 | 0.0 | 6.0 | 0.00 | 0.10 | 0.00 | 31 | 1012.2 |
| 20260905012403 | 94 | 282 | 1.0 | 3.0 | 0.00 | 0.10 | 0.00 | 31 | 1012.2 |
| 20260905011904 | 94 | 297 | 2.0 | 6.0 | 0.00 | 0.10 | 0.00 | 31 | 1012.2 |
| 20260905011403 | 94 | 209 | 2.0 | 6.0 | 0.00 | 0.10 | 0.00 | 30 | 1012.1 |
| 20260905010903 | 94 | 277 | 1.0 | 7.0 | 0.00 | 0.10 | 0.00 | 30 | 1012.0 |
| 20260905010404 | 94 | 218 | 2.0 | 7.0 | 0.00 | 0.10 | 0.00 | 30 | 1012.1 |
| 20260905005903 | 94 | 18 | 1.0 | 6.0 | 0.00 | 0.10 | 0.00 | 30 | 1012.0 |
| 20260905005403 | 95 | 304 | 2.0 | 7.0 | 0.00 | 0.10 | 0.00 | 29 | 1012.0 |
| 20260905004903 | 95 | 13 | 2.0 | 7.0 | 0.00 | 0.10 | 0.00 | 29 | 1011.9 |
| 20260905004404 | 95 | 238 | 2.0 | 7.0 | 0.00 | 0.10 | 0.00 | 29 | 1012.0 |
| 20260905003904 | 95 | 196 | 2.0 | 3.0 | 0.00 | 0.10 | 0.00 | 28 | 1012.0 |
| 20260905002903 | 96 | 332 | 1.0 | 5.0 | 0.00 | 0.10 | 0.00 | 28 | 1012.0 |
| 20260905002403 | 96 | 135 | 1.0 | 6.0 | 0.00 | 0.10 | 0.00 | 28 | 1011.9 |
| 20260905001904 | 96 | 340 | 2.0 | 6.0 | 0.00 | 0.10 | 0.00 | 28 | 1011.8 |
| 20260905001403 | 96 | 266 | 1.0 | 7.0 | 0.00 | 0.10 | 0.00 | 27 | 1011.8 |
| 20260905000904 | 96 | 335 | 3.0 | 8.0 | 0.00 | 0.10 | 0.00 | 27 | 1011.8 |
| 20260905000404 | 97 | 251 | 2.0 | 8.0 | 0.00 | 0.10 | 0.00 | 26 | 1011.8 |
| 20260904235403 | 97 | 238 | 2.0 | 7.0 | 0.00 | 0.10 | 0.00 | 26 | 1011.6 |
| 20260904234403 | 97 | 237 | 2.0 | 6.0 | 0.00 | 0.10 | 0.00 | 28 | 1011.7 |
| 20260904233903 | 97 | 16 | 2.0 | 5.0 | 0.00 | 0.10 | 0.00 | 29 | 1011.8 |
| 20260904232903 | 97 | 45 | 1.0 | 7.0 | 0.00 | 0.10 | 0.00 | 29 | 1011.8 |
| 20260904231404 | 98 | 253 | 3.0 | 7.0 | 0.00 | 0.10 | 0.00 | 27 | 1012.0 |
| 20260904230903 | 97 | 65 | 1.0 | 7.0 | 0.00 | 0.10 | 0.00 | 31 | 1012.0 |
| 20260904230403 | 96 | 292 | 2.0 | 6.0 | 0.00 | 0.10 | 0.00 | 31 | 1012.0 |
| 20260904225904 | 96 | 213 | 1.0 | 7.0 | 0.00 | 0.10 | 0.00 | 30 | 1012.0 |
| 20260904224904 | 96 | 198 | 1.0 | 7.0 | 0.00 | 0.10 | 0.00 | 32 | 1012.2 |
| 20260904224404 | 97 | 163 | 2.0 | 7.0 | 0.00 | 0.10 | 0.00 | 30 | 1012.2 |
| 20260904223904 | 98 | 230 | 2.0 | 5.0 | 0.00 | 0.10 | 0.00 | 30 | 1012.2 |
| 20260904223404 | 98 | 67 | 0.0 | 9.0 | 0.00 | 0.10 | 0.00 | 30 | 1012.3 |
| 20260904222903 | 98 | 70 | 2.0 | 9.0 | 0.00 | 0.10 | 0.00 | 30 | 1012.3 |
| 20260904221904 | 98 | 213 | 2.0 | 9.0 | 0.00 | 0.10 | 0.00 | 30 | 1012.5 |
| 20260904221403 | 98 | 222 | 2.0 | 8.0 | 0.00 | 0.10 | 0.00 | 29 | 1012.4 |
| 20260904220904 | 99 | 343 | 1.0 | 6.0 | 0.00 | 0.10 | 0.00 | 29 | 1012.6 |
| 20260904220403 | 98 | 306 | 2.0 | 7.0 | 0.00 | 0.10 | 0.00 | 29 | 1012.5 |
| 20260904215904 | 99 | 353 | 3.0 | 7.0 | 0.00 | 0.10 | 0.00 | 29 | 1012.6 |
| 20260904214903 | 98 | 242 | 2.0 | 8.0 | 0.00 | 0.10 | 0.00 | 30 | 1012.7 |
| 20260904214403 | 98 | 318 | 2.0 | 9.0 | 0.00 | 0.10 | 0.00 | 29 | 1012.8 |
| 20260904213904 | 98 | 10 | 4.0 | 9.0 | 0.00 | 0.10 | 0.00 | 30 | 1012.8 |
| 20260904213404 | 97 | 39 | 2.0 | 8.0 | 0.00 | 0.10 | 0.00 | 29 | 1012.8 |
| 20260904212904 | 99 | 227 | 3.0 | 8.0 | 0.00 | 0.10 | 0.00 | 28 | 1012.9 |
| 20260904212403 | 98 | 101 | 2.0 | 6.0 | 0.00 | 0.10 | 0.00 | 28 | 1012.9 |
| 20260904211904 | 98 | 227 | 2.0 | 10.0 | 0.00 | 0.10 | 0.00 | 30 | 1013.0 |
| 20260904211403 | 98 | 254 | 3.0 | 10.0 | 0.00 | 0.10 | 0.00 | 28 | 1013.1 |
| 20260904210904 | 99 | 228 | 4.0 | 10.0 | 0.00 | 0.10 | 0.00 | 28 | 1013.1 |
| 20260904210403 | 98 | 227 | 3.0 | 8.0 | 0.00 | 0.10 | 0.00 | 30 | 1013.2 |
| 20260904205904 | 98 | 338 | 3.0 | 7.0 | 0.00 | 0.10 | 0.00 | 30 | 1013.2 |
| 20260904204403 | 96 | 225 | 1.0 | 6.0 | 0.00 | 0.10 | 0.00 | 32 | 1013.3 |
| 20260904203903 | 96 | 211 | 2.0 | 5.0 | 0.00 | 0.10 | 0.00 | 34 | 1013.4 |
| 20260904203403 | 97 | 200 | 3.0 | 6.0 | 0.00 | 0.10 | 0.00 | 32 | 1013.5 |
| 20260904202904 | 97 | 228 | 1.0 | 9.0 | 0.00 | 0.10 | 0.00 | 33 | 1013.6 |
| 20260904202404 | 98 | 299 | 3.0 | 9.0 | 0.00 | 0.10 | 0.00 | 34 | 1013.7 |
| 20260904201903 | 96 | 242 | 3.0 | 7.0 | 0.00 | 0.10 | 0.00 | 36 | 1013.7 |
| 20260904201404 | 97 | 40 | 2.0 | 8.0 | 0.00 | 0.10 | 0.00 | 34 | 1013.8 |
| 20260904200903 | 97 | 233 | 3.0 | 8.0 | 0.00 | 0.10 | 0.00 | 35 | 1013.9 |
| 20260904200404 | 96 | 234 | 4.0 | 8.0 | 0.00 | 0.10 | 0.00 | 37 | 1014.0 |
| 20260904195904 | 96 | 147 | 2.0 | 5.0 | 0.00 | 0.10 | 0.00 | 36 | 1014.1 |
| 20260904195404 | 96 | 30 | 2.0 | 5.0 | 0.00 | 0.10 | 0.00 | 38 | 1014.0 |
| 20260904194903 | 95 | 212 | 1.0 | 3.0 | 0.00 | 0.10 | 0.00 | 39 | 1014.1 |
| 20260904194403 | 94 | 105 | 1.0 | 3.0 | 0.00 | 0.10 | 0.00 | 39 | 1014.2 |
| 20260904193903 | 94 | 56 | 1.0 | 7.0 | 0.00 | 0.10 | 0.00 | 40 | 1014.3 |
| 20260904192904 | 94 | 86 | 1.0 | 6.0 | 0.00 | 0.10 | 0.00 | 40 | 1014.4 |
| 20260904192403 | 94 | 193 | 2.0 | 6.0 | 0.00 | 0.10 | 0.00 | 39 | 1014.6 |
| 20260904191903 | 94 | 250 | 1.0 | 7.0 | 0.00 | 0.10 | 0.00 | 41 | 1014.6 |
| 20260904191403 | 94 | 230 | 2.0 | 7.0 | 0.00 | 0.10 | 0.00 | 40 | 1014.6 |
| 20260904190903 | 94 | 219 | 2.0 | 6.0 | 0.00 | 0.10 | 0.00 | 39 | 1014.6 |
| 20260904190404 | 93 | 55 | 2.0 | 5.0 | 0.00 | 0.10 | 0.00 | 40 | 1014.7 |
| 20260904185904 | 93 | 48 | 2.0 | 5.0 | 0.00 | 0.10 | 0.00 | 40 | 1014.8 |
| 20260904185403 | 92 | 38 | 2.0 | 6.0 | 0.00 | 0.10 | 0.00 | 40 | 1014.8 |
| 20260904184903 | 92 | 122 | 2.0 | 6.0 | 0.00 | 0.10 | 0.00 | 40 | 1014.9 |
| 20260904184403 | 93 | 183 | 1.0 | 6.0 | 0.00 | 0.10 | 0.00 | 39 | 1014.9 |
| 20260904183903 | 93 | 92 | 2.0 | 6.0 | 0.00 | 0.10 | 0.00 | 40 | 1015.0 |
| 20260904182903 | 92 | 39 | 2.0 | 6.0 | 0.00 | 0.10 | 0.00 | 41 | 1015.1 |
| 20260904181403 | 91 | 153 | 1.0 | 3.0 | 0.00 | 0.10 | 0.00 | 43 | 1015.3 |
| 20260904180904 | 91 | 94 | 2.0 | 5.0 | 0.00 | 0.10 | 0.00 | 43 | 1015.4 |
| 20260904180403 | 91 | 148 | 1.0 | 5.0 | 0.00 | 0.10 | 0.00 | 44 | 1015.4 |
| 20260904175903 | 91 | 240 | 2.0 | 6.0 | 0.00 | 0.10 | 0.00 | 44 | 1015.4 |
| 20260904175403 | 91 | 188 | 2.0 | 6.0 | 0.00 | 0.10 | 0.00 | 46 | 1015.4 |
| 20260904174904 | 90 | 141 | 1.0 | 8.0 | 0.00 | 0.10 | 0.00 | 50 | 1015.5 |
| 20260904174403 | 90 | 159 | 3.0 | 8.0 | 0.00 | 0.10 | 0.00 | 47 | 1015.5 |
| 20260904173904 | 90 | 80 | 2.0 | 6.0 | 0.00 | 0.10 | 0.00 | 51 | 1015.7 |
| 20260904173403 | 89 | 94 | 2.0 | 7.0 | 0.00 | 0.10 | 0.00 | 50 | 1015.8 |
| 20260904172904 | 89 | 165 | 1.0 | 7.0 | 0.00 | 0.10 | 0.00 | 51 | 1015.9 |
| 20260904172403 | 89 | 113 | 3.0 | 10.0 | 0.00 | 0.10 | 0.00 | 51 | 1015.8 |
| 20260904171904 | 89 | 113 | 3.0 | 10.0 | 0.00 | 0.10 | 0.00 | 53 | 1016.0 |
| 20260904171403 | 88 | 93 | 2.0 | 10.0 | 0.00 | 0.10 | 0.00 | 53 | 1016.0 |
| 20260904170903 | 88 | 140 | 1.0 | 8.0 | 0.00 | 0.10 | 0.00 | 54 | 1016.1 |
| 20260904170404 | 87 | 93 | 4.0 | 8.0 | 0.00 | 0.10 | 0.00 | 54 | 1016.2 |
| 20260904165904 | 88 | 118 | 2.0 | 10.0 | 0.00 | 0.10 | 0.00 | 56 | 1016.1 |
| 20260904165403 | 87 | 115 | 2.0 | 10.0 | 0.00 | 0.10 | 0.00 | 56 | 1016.0 |
| 20260904164904 | 87 | 142 | 3.0 | 9.0 | 0.00 | 0.10 | 0.00 | 55 | 1016.0 |
| 20260904164403 | 87 | 139 | 2.0 | 8.0 | 0.00 | 0.10 | 0.00 | 56 | 1016.0 |
| 20260904163904 | 86 | 103 | 2.0 | 8.0 | 0.00 | 0.10 | 0.00 | 57 | 1015.9 |
| 20260904162404 | 86 | 116 | 3.0 | 7.0 | 0.00 | 0.10 | 0.00 | 57 | 1015.9 |
| 20260904161903 | 86 | 95 | 4.0 | 8.0 | 0.00 | 0.10 | 0.00 | 57 | 1015.9 |